BMCB-2 Weather Reports


time (UTC)temp
C
wind
direction
speed
KPH
gust
KPH
rain 1hr
cm
rain 24hr
cm
rain mn
cm
humidity
%
barometer
mb
20260507151103 12 109 6.4 8.0 0.00 0.03 0.03 65 1017.1
20260507150058 12 71 6.4 11.3 0.00 0.03 0.03 66 1017.1
20260507144059 12 60 4.8 9.7 0.00 0.03 0.03 66 1017.1
20260507142058 13 47 6.4 9.7 0.00 0.03 0.03 68 1017.1
20260507141059 12 21 6.4 11.3 0.00 0.03 0.03 67 1017.2
20260507140106 12 70 6.4 8.0 0.00 0.03 0.03 68 1017.2
20260507135100 12 42 6.4 11.3 0.00 0.03 0.03 68 1017.3
20260507134059 12 15 4.8 9.7 0.00 0.03 0.03 68 1017.3
20260507133101 12 6 6.4 9.7 0.00 0.03 0.03 68 1017.3
20260507132059 12 326 4.8 8.0 0.00 0.03 0.03 68 1017.3
20260507131058 12 61 4.8 8.0 0.00 0.03 0.03 67 1017.3
20260507130100 12 70 4.8 9.7 0.00 0.03 0.03 67 1017.3
20260507125058 12 21 4.8 8.0 0.00 0.03 0.03 67 1017.4
20260507124101 12 33 6.4 9.7 0.00 0.03 0.03 66 1017.3
20260507123100 12 12 4.8 8.0 0.00 0.03 0.03 71 1017.3
20260507122059 12 321 3.2 4.8 0.00 0.03 0.03 72 1017.3
20260507121059 12 335 3.2 4.8 0.00 0.03 0.03 70 1017.3
20260507120058 12 42 1.6 3.2 0.00 0.03 0.03 71 1017.3
20260507115100 12 64 1.6 4.8 0.00 0.03 0.03 70 1017.3
20260507114100 12 46 3.2 6.4 0.00 0.03 0.03 71 1017.3
20260507112103 12 303 4.8 8.0 0.00 0.03 0.03 71 1017.2
20260507111102 12 248 3.2 6.4 0.00 0.03 0.03 71 1017.3
20260507105059 11 46 4.8 8.0 0.00 0.03 0.03 70 1017.4
20260507104059 11 350 3.2 8.0 0.00 0.03 0.03 73 1017.4
20260507103059 11 332 3.2 8.0 0.00 0.03 0.03 74 1017.5
20260507102059 11 18 3.2 6.4 0.00 0.03 0.03 75 1017.5
20260507095057 11 301 4.8 12.9 0.00 0.05 0.03 77 1017.4
20260507094057 11 26 8.0 16.1 0.00 0.05 0.03 79 1017.3
20260507093058 10 16 6.4 9.7 0.00 0.05 0.03 76 1017.2
20260507092059 10 3 6.4 11.3 0.00 0.08 0.03 77 1017.2
20260507084100 10 33 4.8 9.7 0.00 0.10 0.03 80 1017.1
20260507083102 10 36 8.0 12.9 0.00 0.10 0.03 81 1017.1
20260507082058 10 22 6.4 9.7 0.00 0.13 0.03 82 1017.1
20260507081100 10 352 3.2 6.4 0.00 0.13 0.03 82 1017.0
20260507075101 9 7 4.8 6.4 0.00 0.13 0.03 83 1017.0
20260507074101 9 336 4.8 8.0 0.00 0.13 0.03 84 1017.0
20260507072057 8 340 4.8 8.0 0.00 0.15 0.03 87 1016.9
20260507071101 8 352 4.8 8.0 0.00 0.15 0.03 88 1016.9
20260507070057 8 349 4.8 8.0 0.00 0.15 0.03 88 1016.9
20260507064058 8 329 3.2 4.8 0.00 0.15 0.03 88 1016.8
20260507063053 8 356 4.8 4.8 0.00 0.15 0.03 89 1016.7
20260507062057 8 347 3.2 4.8 0.00 0.18 0.03 90 1016.6
20260507061057 8 354 1.6 3.2 0.00 0.23 0.03 90 1016.5
20260507060056 7 356 3.2 3.2 0.00 0.23 0.03 91 1016.5
20260507055053 7 350 3.2 3.2 0.00 0.28 0.03 91 1016.4
20260507054056 7 356 3.2 4.8 0.00 0.33 0.03 91 1016.3
20260507052056 7 354 3.2 3.2 0.00 0.36 0.03 94 1016.2
20260507051059 7 343 1.6 3.2 0.00 0.38 0.03 96 1016.1
20260507050055 7 326 0.0 1.6 0.00 0.41 0.03 97 1016.0
20260507045056 7 330 0.0 1.6 0.00 0.43 0.03 97 1015.9
20260507044057 7 340 1.6 3.2 0.00 0.43 0.03 98 1015.9
20260507043056 7 354 1.6 1.6 0.00 0.46 0.03 98 1015.8
20260507042100 7 350 0.0 1.6 0.00 0.48 0.03 97 1015.7
20260507041057 7 350 1.6 1.6 0.00 0.51 0.03 97 1015.6
20260507040058 7 342 0.0 0.0 0.00 0.51 0.03 96 1015.5
20260507035058 7 19 1.6 1.6 0.00 0.53 0.03 96 1015.4
20260507034056 7 123 0.0 1.6 0.00 0.53 0.03 96 1015.4
20260507033055 7 290 0.0 0.0 0.00 0.53 0.03 95 1015.4
20260507032057 7 335 1.6 3.2 0.00 0.56 0.03 95 1015.4
20260507031056 7 3 3.2 3.2 0.00 0.56 0.03 95 1015.4
20260507030056 7 358 3.2 4.8 0.03 0.58 0.03 96 1015.3
20260507024055 7 356 3.2 6.4 0.03 0.61 0.03 96 1015.2
20260507023054 7 351 3.2 6.4 0.03 0.61 0.03 96 1015.2
20260507021057 7 9 4.8 6.4 0.03 0.61 0.03 96 1015.0
20260507015055 7 4 6.4 11.3 0.00 0.61 0.00 96 1014.9
20260507014057 7 359 6.4 9.7 0.00 0.61 0.00 96 1014.9
20260507013055 7 2 6.4 9.7 0.00 0.61 0.00 96 1014.9
20260507012054 7 359 4.8 8.0 0.00 0.64 0.00 97 1014.9
20260507010100 7 1 4.8 8.0 0.00 0.66 0.00 97 1014.8
20260507005058 7 354 4.8 6.4 0.00 0.66 0.00 97 1014.8
20260507004058 7 343 3.2 6.4 0.00 0.69 0.00 97 1014.8
20260507003054 7 339 3.2 4.8 0.00 0.69 0.00 97 1014.7
20260507002056 7 342 3.2 4.8 0.00 0.71 0.00 97 1014.7
20260507001055 7 341 3.2 6.4 0.00 0.71 0.00 97 1014.7
20260507000059 7 341 3.2 3.2 0.00 0.71 0.00 96 1014.7
20260506235105 7 342 3.2 6.4 0.00 0.74 0.00 96 1014.6
20260506234104 7 346 3.2 6.4 0.00 0.74 0.00 96 1014.5
20260506233104 7 344 3.2 4.8 0.00 0.74 0.00 95 1014.5
20260506231103 7 341 4.8 6.4 0.00 0.79 0.00 95 1014.4
20260506230105 7 341 4.8 4.8 0.00 0.79 0.00 95 1014.3
20260506225103 7 350 4.8 6.4 0.00 0.79 0.00 95 1014.2
20260506224105 6 343 4.8 6.4 0.00 0.79 0.00 94 1014.2
20260506223103 6 339 4.8 6.4 0.00 0.81 0.00 95 1014.1
20260506222104 6 335 4.8 6.4 0.00 0.81 0.00 95 1014.0
20260506221104 6 331 3.2 4.8 0.00 0.84 0.00 96 1014.0
20260506220115 6 329 3.2 4.8 0.00 0.86 0.00 96 1014.0
20260506214110 6 326 3.2 3.2 0.00 0.89 0.86 94 1013.8
20260506213107 6 335 4.8 6.4 0.00 0.89 0.86 93 1013.7
20260506212108 6 336 4.8 6.4 0.00 0.91 0.86 92 1013.5
20260506211108 7 337 3.2 8.0 0.00 0.94 0.86 91 1013.5
20260506210109 7 342 4.8 6.4 0.00 0.97 0.86 88 1013.3
20260506204106 8 348 6.4 11.3 0.00 0.99 0.86 86 1013.0
20260506203109 8 340 4.8 8.0 0.00 0.99 0.86 85 1012.9
20260506202110 8 334 4.8 8.0 0.00 1.02 0.86 84 1012.9
20260506201109 9 349 6.4 8.0 0.00 1.04 0.86 84 1012.7
20260506200108 9 356 8.0 12.9 0.00 1.07 0.86 82 1012.6
20260506195108 9 354 8.0 14.5 0.00 1.09 0.86 81 1012.5
20260506194110 10 352 6.4 9.7 0.00 1.12 0.86 84 1012.5
20260506193109 10 358 4.8 8.0 0.00 1.12 0.86 85 1012.4
20260506192110 10 7 4.8 6.4 0.00 1.14 0.86 86 1012.2
20260506191106 10 12 4.8 8.0 0.00 1.17 0.86 86 1012.1
20260506190109 10 359 6.4 11.3 0.00 1.17 0.86 87 1012.1
20260506185107 10 352 6.4 11.3 0.00 1.22 0.86 88 1012.0
20260506184100 10 343 3.2 4.8 0.00 1.24 0.86 89 1011.8
20260506183106 10 299 3.2 4.8 0.00 1.27 0.86 89 1011.7
20260506182108 10 302 3.2 4.8 0.00 1.32 0.86 88 1011.6
20260506181101 10 300 4.8 8.0 0.00 1.37 0.86 88 1011.5
20260506180107 10 304 3.2 4.8 0.00 1.40 0.86 87 1011.3
20260506175105 10 309 4.8 8.0 0.00 1.42 0.86 87 1011.2
20260506174103 10 314 4.8 6.4 0.00 1.45 0.86 87 1011.2
20260506173100 10 314 4.8 8.0 0.00 1.45 0.86 86 1011.0
20260506171102 10 324 6.4 9.7 0.00 1.52 0.86 84 1010.9
20260506170059 10 326 6.4 9.7 0.00 1.55 0.86 84 1010.8
20260506165059 11 333 6.4 11.3 0.00 1.55 0.86 82 1010.8
20260506164102 11 328 8.0 14.5 0.00 1.57 0.86 82 1010.7
20260506163100 11 336 8.0 14.5 0.00 1.57 0.86 82 1010.7
20260506162105 11 328 8.0 16.1 0.00 1.60 0.86 80 1010.6
20260506161101 11 323 9.7 16.1 0.00 1.60 0.86 80 1010.6
20260506160058 11 319 8.0 16.1 0.00 1.60 0.86 80 1010.6
20260506155101 11 316 8.0 14.5 0.00 1.60 0.86 83 1010.6
20260506154105 11 315 8.0 16.1 0.00 1.60 0.86 83 1010.6